Total_Precipitation_Accumulation
0.37 0.37 0.36 0.36 0.30 0.27 0.29 0.34 0.64 0.97 1.31 1.72 1.89 1.83 1.78 1.70 1.48 1.19 1.07 1.05 1.01 1.01 0.99 0.93 0.85 0.81 0.77 0.76 0.75 0.80 0.82 0.81 0.73 0.64 0.61 0.61 0.61 0.62 0.60 0.55 0.50 0.48 0.43 0.39
0.34 0.27 0.31 0.37 0.37 0.39 0.44 0.48 0.66 1.04 1.56 1.94 2.03 1.89 1.82 1.76 1.60 1.47 1.37 1.29 1.25 1.17 1.14 1.11 1.02 0.90 0.83 0.82 0.83 0.87 0.93 0.98 0.98 0.90 0.81 0.75 0.68 0.62 0.58 0.53 0.44 0.35 0.29 0.26
0.55 0.32 0.46 0.77 0.60 0.51 0.57 0.64 0.82 1.30 1.63 1.67 1.75 1.85 1.92 1.96 1.86 1.72 1.60 1.53 1.48 1.42 1.35 1.28 1.19 1.11 1.05 0.97 0.93 0.92 0.95 0.98 0.95 0.89 0.80 0.71 0.61 0.53 0.51 0.48 0.44 0.39 0.30 0.24
0.61 0.65 1.12 1.04 0.59 0.55 0.66 0.76 0.84 1.04 1.23 1.33 1.33 1.42 1.51 1.61 1.67 1.64 1.50 1.47 1.47 1.46 1.44 1.41 1.29 1.20 1.14 1.07 1.02 0.97 0.98 0.94 0.87 0.76 0.67 0.58 0.52 0.50 0.49 0.46 0.47 0.45 0.38 0.32
0.67 0.93 1.12 0.98 0.56 0.54 0.88 1.30 1.07 1.01 0.95 0.88 0.85 0.95 1.24 1.42 1.45 1.53 1.55 1.53 1.51 1.44 1.36 1.33 1.25 1.20 1.14 1.11 1.05 0.97 0.92 0.82 0.69 0.60 0.56 0.53 0.50 0.49 0.48 0.46 0.44 0.41 0.36 0.34
0.73 1.07 1.35 1.22 0.53 0.37 0.74 1.61 1.28 1.08 0.94 0.86 0.93 1.11 1.15 1.13 1.14 1.23 1.27 1.30 1.23 1.13 1.08 1.10 1.11 1.08 1.04 1.00 0.94 0.85 0.71 0.57 0.50 0.48 0.49 0.49 0.47 0.45 0.44 0.44 0.44 0.37 0.31 0.31
0.82 1.17 1.36 0.68 0.31 0.46 1.18 1.53 1.24 1.05 0.91 0.87 1.05 1.06 0.84 0.79 0.86 0.92 0.95 0.93 0.87 0.86 0.94 1.00 1.00 0.93 0.89 0.83 0.77 0.65 0.56 0.49 0.45 0.42 0.39 0.41 0.42 0.43 0.43 0.42 0.45 0.43 0.40 0.36
0.93 1.26 1.35 0.54 0.36 0.66 0.85 0.74 0.83 0.86 0.81 0.74 0.70 0.57 0.53 0.56 0.61 0.64 0.66 0.67 0.66 0.70 0.78 0.79 0.73 0.74 0.80 0.74 0.62 0.50 0.53 0.54 0.49 0.43 0.36 0.40 0.50 0.49 0.46 0.50 0.54 0.52 0.48 0.43
0.92 1.12 0.89 0.47 0.38 0.42 0.49 0.60 0.61 0.61 0.57 0.46 0.40 0.35 0.37 0.40 0.41 0.44 0.45 0.50 0.55 0.56 0.61 0.65 0.62 0.65 0.71 0.70 0.58 0.54 0.60 0.59 0.48 0.39 0.42 0.45 0.49 0.47 0.42 0.43 0.40 0.37 0.36 0.35
0.64 0.74 0.58 0.47 0.40 0.37 0.37 0.41 0.39 0.39 0.39 0.31 0.28 0.31 0.35 0.38 0.36 0.35 0.39 0.41 0.46 0.48 0.48 0.52 0.52 0.56 0.60 0.55 0.53 0.63 0.71 0.60 0.44 0.39 0.39 0.39 0.38 0.33 0.30 0.32 0.31 0.29 0.27 0.25
0.63 0.67 0.62 0.61 0.42 0.31 0.28 0.26 0.26 0.28 0.29 0.26 0.25 0.31 0.31 0.33 0.35 0.36 0.37 0.39 0.42 0.45 0.44 0.40 0.40 0.45 0.44 0.46 0.55 0.73 0.70 0.56 0.45 0.38 0.35 0.34 0.28 0.21 0.17 0.16 0.13 0.17 0.19 0.17
0.56 0.50 0.57 0.64 0.47 0.31 0.29 0.26 0.24 0.22 0.23 0.27 0.29 0.30 0.28 0.28 0.31 0.33 0.33 0.34 0.40 0.41 0.37 0.36 0.38 0.39 0.38 0.43 0.49 0.62 0.62 0.48 0.39 0.34 0.29 0.24 0.22 0.20 0.12 0.07 0.06 0.05 0.06 0.06
0.29 0.28 0.33 0.33 0.27 0.24 0.24 0.24 0.24 0.23 0.22 0.26 0.29 0.28 0.27 0.25 0.25 0.28 0.31 0.33 0.38 0.38 0.34 0.31 0.32 0.35 0.32 0.33 0.38 0.46 0.48 0.36 0.28 0.25 0.25 0.23 0.21 0.27 0.27 0.14 0.06 0.04 0.04 0.05
0.15 0.20 0.25 0.26 0.27 0.24 0.24 0.26 0.25 0.22 0.23 0.28 0.29 0.27 0.23 0.20 0.21 0.24 0.27 0.25 0.22 0.22 0.25 0.27 0.25 0.24 0.20 0.20 0.27 0.29 0.24 0.16 0.15 0.19 0.18 0.17 0.16 0.18 0.20 0.23 0.24 0.17 0.08 0.05
0.14 0.17 0.22 0.27 0.28 0.26 0.27 0.29 0.27 0.25 0.23 0.25 0.23 0.19 0.16 0.16 0.17 0.17 0.17 0.15 0.17 0.21 0.21 0.19 0.19 0.19 0.13 0.13 0.16 0.17 0.14 0.13 0.12 0.12 0.11 0.10 0.10 0.10 0.10 0.13 0.21 0.24 0.18 0.11
0.16 0.17 0.19 0.24 0.29 0.29 0.29 0.31 0.30 0.25 0.18 0.17 0.16 0.15 0.13 0.12 0.11 0.11 0.11 0.12 0.18 0.21 0.19 0.17 0.18 0.13 0.08 0.08 0.11 0.10 0.09 0.08 0.09 0.09 0.08 0.07 0.07 0.07 0.08 0.10 0.14 0.18 0.19 0.14
0.20 0.20 0.18 0.19 0.21 0.25 0.22 0.18 0.18 0.17 0.14 0.13 0.11 0.09 0.07 0.07 0.09 0.10 0.11 0.12 0.16 0.18 0.17 0.16 0.12 0.06 0.04 0.04 0.06 0.06 0.04 0.03 0.03 0.04 0.06 0.05 0.06 0.07 0.07 0.08 0.12 0.14 0.12 0.09
0.20 0.16 0.14 0.13 0.15 0.16 0.13 0.10 0.10 0.12 0.12 0.09 0.06 0.05 0.06 0.08 0.08 0.08 0.08 0.08 0.10 0.14 0.13 0.08 0.06 0.04 0.03 0.02 0.04 0.04 0.03 0.03 0.03 0.04 0.04 0.04 0.05 0.06 0.07 0.08 0.10 0.11 0.11 0.10
0.11 0.08 0.07 0.07 0.09 0.09 0.08 0.09 0.08 0.09 0.08 0.05 0.04 0.05 0.06 0.06 0.05 0.05 0.06 0.07 0.10 0.13 0.10 0.05 0.03 0.03 0.03 0.02 0.02 0.02 0.02 0.02 0.02 0.03 0.03 0.03 0.04 0.05 0.05 0.06 0.07 0.08 0.10 0.12
0.05 0.04 0.04 0.05 0.05 0.06 0.07 0.08 0.07 0.06 0.05 0.04 0.04 0.05 0.04 0.03 0.03 0.03 0.05 0.09 0.10 0.08 0.05 0.02 0.02 0.04 0.03 0.01 0.01 0.01 0.01 0.01 0.01 0.02 0.02 0.03 0.03 0.04 0.04 0.04 0.05 0.07 0.09 0.11
0.04 0.03 0.03 0.04 0.05 0.05 0.06 0.07 0.06 0.05 0.04 0.03 0.03 0.04 0.03 0.03 0.02 0.02 0.04 0.07 0.07 0.04 0.02 0.01 0.02 0.02 0.01 0.01 0.00 0.00 0.01 0.01 0.02 0.02 0.02 0.03 0.03 0.03 0.03 0.04 0.06 0.07 0.08 0.09
0.06 0.04 0.04 0.04 0.04 0.06 0.06 0.06 0.05 0.04 0.03 0.02 0.02 0.02 0.02 0.02 0.02 0.02 0.03 0.05 0.04 0.02 0.01 0.00 0.01 0.01 0.00 0.00 0.00 0.00 0.01 0.01 0.01 0.01 0.02 0.02 0.02 0.02 0.03 0.04 0.04 0.06 0.07 0.07
0.09 0.06 0.05 0.06 0.06 0.06 0.07 0.06 0.04 0.02 0.02 0.02 0.02 0.01 0.02 0.02 0.01 0.01 0.03 0.02 0.01 0.00 0.01 0.01 0.00 0.00 0.00 0.00 0.01 0.01 0.01 0.01 0.01 0.02 0.01 0.01 0.01 0.02 0.02 0.03 0.03 0.04 0.05 0.06
0.14 0.10 0.08 0.08 0.08 0.07 0.06 0.04 0.02 0.02 0.02 0.01 0.01 0.01 0.02 0.01 0.01 0.00 0.00 0.00 0.00 0.00 0.00 0.00 0.00 0.00 0.00 0.00 0.01 0.01 0.01 0.01 0.01 0.01 0.01 0.01 0.01 0.01 0.02 0.03 0.03 0.03 0.04 0.05
0.11 0.11 0.10 0.10 0.11 0.09 0.06 0.03 0.02 0.02 0.02 0.01 0.01 0.01 0.01 0.01 0.00 0.00 0.00 0.00 0.00 0.00 0.00 0.00 0.00 0.00 0.00 0.01 0.01 0.01 0.01 0.01 0.01 0.01 0.01 0.01 0.01 0.02 0.02 0.03 0.03 0.03 0.04 0.05
0.16 0.17 0.16 0.13 0.10 0.08 0.04 0.03 0.03 0.03 0.03 0.02 0.01 0.01 0.01 0.00 0.00 0.00 0.00 0.00 0.00 0.00 0.00 0.00 0.00 0.00 0.00 0.01 0.01 0.01 0.01 0.01 0.01 0.01 0.01 0.02 0.02 0.02 0.02 0.03 0.03 0.04 0.05 0.05
0.25 0.23 0.21 0.17 0.12 0.06 0.04 0.03 0.03 0.03 0.03 0.02 0.02 0.01 0.01 0.01 0.00 0.00 0.00 0.00 0.00 0.00 0.00 0.00 0.00 0.00 0.01 0.01 0.01 0.01 0.01 0.01 0.02 0.02 0.02 0.02 0.02 0.02 0.02 0.03 0.04 0.05 0.05 0.04